Orbital Elements at Epoch 2459200.5 (2020-Dec-17.0) TDB
Reference: JPL 32 (heliocentric ecliptic J2000)
Element | Value | Uncertainty (1-sigma) | Units |
e | .06980920602645629 | 7.0026e-09 | |
a | 2.327462723384082 | 6.3871e-09 | au |
q | 2.164984398608465 | 1.4778e-08 | au |
i | 7.603191066505803 | 4.6987e-07 | deg |
node | 22.48607697702252 | 6.7486e-06 | deg |
peri | 187.2492566407595 | 1.739e-05 | deg |
M | 163.6746728156366 | 1.5885e-05 | deg |
tp | 2458610.840216531488 (2019-May-07.34021653) | 5.6819e-05 | TDB |
period | 1296.947893018086 3.55 | 5.3387e-06 1.462e-08 | d yr |
n | .2775747598943667 | 1.1426e-09 | deg/d |
Q | 2.489941048159699 | 6.833e-09 | au |
|
| | Orbit Determination Parameters
Additional Information
|